SWR1057 EDDH-LSZH

Flight info

Callsign SWR1057
Flight time 1h 6m
Altitude 35000
Route IDEKO7G/33 IDEKO N850 ROBEG DCT SWALM/N0452F340 DCT OMOGI/N0453F350 T721 LAMGO/N0414F230 T721 RILAX
Aircraft A320/M-SDE3FGHIRWY/LB1

Departure

Time 2026-05-07 21:53
Airport Hamburg Helmut Schmidt Airport (EDDH)

Arrival

Time 2026-05-07 22:59
Airport Zürich Airport (LSZH)
Time Latitude Longitude Altitude Speed Heading
2026-05-07 21:22 53.63208 10.00365 51 ft 0 kts 87°
2026-05-07 21:43 53.63207 10.00332 51 ft 4 kts 91°
2026-05-07 21:44 53.63210 10.00287 49 ft 4 kts 107°
2026-05-07 21:44 53.63221 10.00251 51 ft 4 kts 152°
2026-05-07 21:44 53.63230 10.00245 51 ft 0 kts 175°
2026-05-07 21:47 53.63228 10.00245 51 ft 1 kts 176°
2026-05-07 21:47 53.63206 10.00248 51 ft 5 kts 176°
2026-05-07 21:47 53.63163 10.00252 51 ft 7 kts 176°
2026-05-07 21:47 53.63109 10.00259 51 ft 7 kts 175°
2026-05-07 21:48 53.63060 10.00249 51 ft 9 kts 203°
2026-05-07 21:48 53.63011 10.00200 51 ft 8 kts 212°
2026-05-07 21:48 53.62968 10.00154 47 ft 7 kts 212°
2026-05-07 21:48 53.62929 10.00112 51 ft 6 kts 212°
2026-05-07 21:49 53.62894 10.00075 50 ft 6 kts 212°
2026-05-07 21:49 53.62867 10.00033 50 ft 5 kts 235°
2026-05-07 21:49 53.62852 9.99987 49 ft 4 kts 241°
2026-05-07 21:49 53.62849 9.99976 50 ft 0 kts 241°
2026-05-07 21:51 53.62844 9.99961 48 ft 7 kts 241°
2026-05-07 21:51 53.62808 9.99843 49 ft 12 kts 246°
2026-05-07 21:51 53.62820 9.99782 47 ft 2 kts 334°
2026-05-07 21:52 53.62821 9.99781 49 ft 0 kts 334°
2026-05-07 21:52 53.62917 9.99708 50 ft 47 kts 336°
2026-05-07 21:53 53.63432 9.99258 49 ft 116 kts 333°
2026-05-07 21:53 53.64321 9.98493 91 ft 165 kts 335°
2026-05-07 21:53 53.65341 9.97627 785 ft 162 kts 336°
2026-05-07 21:53 53.66356 9.96751 1460 ft 166 kts 335°
2026-05-07 21:54 53.67444 9.95777 1854 ft 187 kts 334°
2026-05-07 21:54 53.68648 9.94714 2286 ft 204 kts 335°
2026-05-07 21:54 53.69960 9.93567 2711 ft 224 kts 334°
2026-05-07 21:54 53.71174 9.91891 3636 ft 223 kts 301°
2026-05-07 21:55 53.71584 9.89328 4143 ft 245 kts 266°
2026-05-07 21:55 53.71249 9.86384 4646 ft 266 kts 252°
2026-05-07 21:55 53.70622 9.83339 5466 ft 274 kts 248°
2026-05-07 21:55 53.69930 9.80367 6379 ft 278 kts 248°
2026-05-07 21:56 53.69209 9.77264 7277 ft 282 kts 249°
2026-05-07 21:56 53.68518 9.74157 8209 ft 284 kts 249°
2026-05-07 21:56 53.67847 9.70997 9124 ft 288 kts 250°
2026-05-07 21:56 53.67194 9.67797 10085 ft 289 kts 251°
2026-05-07 21:57 53.66442 9.64573 10564 ft 307 kts 240°
2026-05-07 21:57 53.65119 9.61590 10822 ft 330 kts 225°
2026-05-07 21:57 53.63259 9.59126 11125 ft 349 kts 210°
2026-05-07 21:57 53.61022 9.57439 11752 ft 357 kts 197°
2026-05-07 21:58 53.58569 9.56638 12476 ft 361 kts 187°
2026-05-07 21:58 53.56069 9.56135 13227 ft 365 kts 187°
2026-05-07 21:58 53.53532 9.55625 13968 ft 369 kts 187°
2026-05-07 21:58 53.50969 9.55111 14620 ft 372 kts 187°
2026-05-07 21:59 53.48383 9.54597 15261 ft 376 kts 187°
2026-05-07 21:59 53.45778 9.54086 15922 ft 379 kts 187°
2026-05-07 21:59 53.43145 9.53571 16553 ft 382 kts 187°
2026-05-07 21:59 53.40494 9.53051 17197 ft 386 kts 187°
2026-05-07 22:00 53.37814 9.52520 17845 ft 389 kts 187°
2026-05-07 22:00 53.35118 9.51991 18480 ft 393 kts 187°
2026-05-07 22:00 53.32385 9.51460 19055 ft 395 kts 187°
2026-05-07 22:00 53.29644 9.50926 19618 ft 398 kts 187°
2026-05-07 22:01 53.26883 9.50386 20166 ft 402 kts 187°
2026-05-07 22:01 53.24092 9.49839 20709 ft 405 kts 187°
2026-05-07 22:01 53.21294 9.49292 21234 ft 408 kts 187°
2026-05-07 22:01 53.18466 9.48741 21744 ft 411 kts 187°
2026-05-07 22:02 53.15617 9.48188 22240 ft 414 kts 187°
2026-05-07 22:02 53.12745 9.47629 22728 ft 416 kts 187°
2026-05-07 22:02 53.09860 9.47066 23204 ft 419 kts 187°
2026-05-07 22:02 53.06953 9.46501 23662 ft 422 kts 187°
2026-05-07 22:03 53.04028 9.45932 24044 ft 425 kts 187°
2026-05-07 22:03 53.01082 9.45360 24417 ft 427 kts 187°
2026-05-07 22:03 52.98131 9.44785 24796 ft 429 kts 187°
2026-05-07 22:03 52.95156 9.44178 25164 ft 431 kts 188°
2026-05-07 22:04 52.92174 9.43546 25523 ft 433 kts 188°
2026-05-07 22:04 52.89185 9.42897 25877 ft 435 kts 188°
2026-05-07 22:04 52.86167 9.42238 26214 ft 437 kts 188°
2026-05-07 22:04 52.83149 9.41584 26555 ft 439 kts 188°
2026-05-07 22:05 52.80104 9.40933 26881 ft 441 kts 188°
2026-05-07 22:05 52.77053 9.40286 27200 ft 443 kts 188°
2026-05-07 22:05 52.73990 9.39636 27506 ft 445 kts 188°
2026-05-07 22:05 52.70901 9.38979 27805 ft 447 kts 188°
2026-05-07 22:06 52.67815 9.38321 28091 ft 449 kts 188°
2026-05-07 22:06 52.64708 9.37660 28373 ft 451 kts 188°
2026-05-07 22:06 52.61585 9.36994 28636 ft 453 kts 188°
2026-05-07 22:06 52.58465 9.36256 28878 ft 455 kts 189°
2026-05-07 22:07 52.55326 9.35439 29116 ft 456 kts 190°
2026-05-07 22:07 52.52193 9.34580 29399 ft 456 kts 191°
2026-05-07 22:07 52.49074 9.33711 29730 ft 456 kts 191°
2026-05-07 22:07 52.45945 9.32849 30071 ft 455 kts 190°
2026-05-07 22:08 52.42829 9.32014 30372 ft 454 kts 190°
2026-05-07 22:08 52.39710 9.31204 30647 ft 454 kts 190°
2026-05-07 22:08 52.36586 9.30404 30923 ft 453 kts 190°
2026-05-07 22:08 52.33473 9.29608 31192 ft 453 kts 190°
2026-05-07 22:09 52.30362 9.28803 31479 ft 452 kts 190°
2026-05-07 22:09 52.27266 9.27994 31761 ft 451 kts 190°
2026-05-07 22:09 52.24155 9.27192 32051 ft 451 kts 188°
2026-05-07 22:09 52.21027 9.26850 32339 ft 451 kts 182°
2026-05-07 22:10 52.17892 9.26714 32618 ft 451 kts 182°
2026-05-07 22:10 52.14758 9.26580 32894 ft 450 kts 183°
2026-05-07 22:10 52.11626 9.26448 33185 ft 450 kts 183°
2026-05-07 22:10 52.08530 9.26318 33472 ft 450 kts 183°
2026-05-07 22:11 52.05407 9.26185 33762 ft 449 kts 183°
2026-05-07 22:11 52.02245 9.26049 34062 ft 448 kts 183°
2026-05-07 22:11 51.99123 9.25912 34310 ft 448 kts 183°
2026-05-07 22:11 51.96051 9.25776 34546 ft 448 kts 183°
2026-05-07 22:12 51.92903 9.25638 34782 ft 448 kts 183°
2026-05-07 22:12 51.89786 9.25503 35008 ft 448 kts 183°
2026-05-07 22:12 51.83573 9.25242 35127 ft 450 kts 183°
2026-05-07 22:13 51.77323 9.24967 35130 ft 450 kts 183°
2026-05-07 22:13 51.71060 9.24692 35125 ft 450 kts 183°
2026-05-07 22:14 51.64801 9.24432 35124 ft 450 kts 183°
2026-05-07 22:14 51.59552 9.24214 35121 ft 450 kts 183°
2026-05-07 22:15 51.52266 9.23911 35123 ft 450 kts 183°
2026-05-07 22:15 51.46001 9.23646 35118 ft 451 kts 183°
2026-05-07 22:16 51.40752 9.23424 35112 ft 451 kts 183°
2026-05-07 22:16 51.34481 9.23161 35117 ft 451 kts 183°
2026-05-07 22:17 51.28196 9.22901 35132 ft 451 kts 183°
2026-05-07 22:17 51.21920 9.22642 35140 ft 451 kts 183°
2026-05-07 22:18 51.12503 9.22233 35141 ft 452 kts 184°
2026-05-07 22:19 51.06220 9.21970 35149 ft 452 kts 184°
2026-05-07 22:19 50.99931 9.21706 35148 ft 452 kts 184°
2026-05-07 22:20 50.93647 9.21448 35131 ft 452 kts 183°
2026-05-07 22:20 50.87358 9.21191 35127 ft 452 kts 183°
2026-05-07 22:21 50.81071 9.20939 35124 ft 452 kts 183°
2026-05-07 22:21 50.74774 9.20685 35119 ft 452 kts 184°
2026-05-07 22:22 50.68522 9.19901 35118 ft 450 kts 189°
2026-05-07 22:22 50.62311 9.18595 35117 ft 450 kts 189°
2026-05-07 22:23 50.56102 9.17303 35113 ft 450 kts 189°
2026-05-07 22:23 50.49890 9.16018 35107 ft 450 kts 189°
2026-05-07 22:24 50.43666 9.14743 35112 ft 450 kts 189°
2026-05-07 22:24 50.37459 9.13466 35114 ft 450 kts 189°
2026-05-07 22:25 50.31164 9.12175 35118 ft 450 kts 189°
2026-05-07 22:25 50.24945 9.10904 35112 ft 450 kts 190°
2026-05-07 22:26 50.18738 9.09636 35109 ft 449 kts 190°
2026-05-07 22:26 50.12547 9.08370 35108 ft 449 kts 190°
2026-05-07 22:27 50.06344 9.07104 35097 ft 449 kts 190°
2026-05-07 22:27 50.00145 9.05847 35100 ft 449 kts 190°
2026-05-07 22:28 49.93962 9.04596 35099 ft 448 kts 190°
2026-05-07 22:28 49.87809 9.03371 35098 ft 448 kts 190°
2026-05-07 22:29 49.81593 9.02129 35083 ft 448 kts 190°
2026-05-07 22:29 49.75405 9.00883 35087 ft 448 kts 190°
2026-05-07 22:30 49.69231 8.99642 35089 ft 447 kts 190°
2026-05-07 22:30 49.63105 8.98366 35090 ft 447 kts 192°
2026-05-07 22:31 49.56956 8.96704 35085 ft 445 kts 193°
2026-05-07 22:31 49.50871 8.94892 35091 ft 445 kts 194°
2026-05-07 22:32 49.44771 8.93147 35094 ft 446 kts 193°
2026-05-07 22:32 49.38666 8.91497 35084 ft 445 kts 193°
2026-05-07 22:33 49.32603 8.89878 35091 ft 445 kts 193°
2026-05-07 22:33 49.26505 8.88239 35092 ft 445 kts 193°
2026-05-07 22:34 49.20381 8.86575 35090 ft 445 kts 193°
2026-05-07 22:34 49.14289 8.84897 35076 ft 444 kts 193°
2026-05-07 22:35 49.08206 8.83232 35093 ft 444 kts 193°
2026-05-07 22:35 49.02120 8.81585 35083 ft 444 kts 193°
2026-05-07 22:36 48.95998 8.79921 35075 ft 444 kts 194°
2026-05-07 22:36 48.89919 8.78276 35079 ft 443 kts 193°
2026-05-07 22:37 48.83843 8.76639 35081 ft 443 kts 194°
2026-05-07 22:37 48.77780 8.75005 35085 ft 443 kts 193°
2026-05-07 22:38 48.71708 8.73381 35072 ft 443 kts 194°
2026-05-07 22:38 48.65631 8.71765 35075 ft 443 kts 194°
2026-05-07 22:39 48.59559 8.70150 35088 ft 443 kts 194°
2026-05-07 22:39 48.53497 8.68545 35095 ft 443 kts 193°
2026-05-07 22:40 48.47422 8.66939 35096 ft 443 kts 194°
2026-05-07 22:40 48.41362 8.65330 35099 ft 442 kts 194°
2026-05-07 22:41 48.35295 8.63696 35097 ft 442 kts 194°
2026-05-07 22:41 48.29280 8.61885 35088 ft 441 kts 195°
2026-05-07 22:42 48.23285 8.59996 35094 ft 440 kts 195°
2026-05-07 22:42 48.17302 8.58169 35095 ft 440 kts 195°
2026-05-07 22:43 48.11270 8.56380 35083 ft 440 kts 195°
2026-05-07 22:43 48.05256 8.54613 34750 ft 440 kts 195°
2026-05-07 22:43 48.02259 8.53729 33198 ft 442 kts 195°
2026-05-07 22:44 47.99183 8.53124 31329 ft 452 kts 185°
2026-05-07 22:44 47.96009 8.53400 29406 ft 461 kts 174°
2026-05-07 22:44 47.92887 8.54631 27233 ft 469 kts 161°
2026-05-07 22:44 47.89964 8.56847 25315 ft 475 kts 147°
2026-05-07 22:45 47.87423 8.59860 24248 ft 458 kts 140°
2026-05-07 22:45 47.85147 8.63083 22968 ft 447 kts 137°
2026-05-07 22:45 47.82886 8.66166 21611 ft 436 kts 146°
2026-05-07 22:45 47.80291 8.68380 20381 ft 423 kts 158°
2026-05-07 22:46 47.77613 8.70118 19138 ft 417 kts 159°
2026-05-07 22:46 47.74966 8.71808 17906 ft 412 kts 159°
2026-05-07 22:46 47.72353 8.73457 16669 ft 405 kts 159°
2026-05-07 22:46 47.69772 8.75084 15535 ft 398 kts 159°
2026-05-07 22:47 47.67248 8.76675 14418 ft 392 kts 159°
2026-05-07 22:47 47.64759 8.78248 13242 ft 386 kts 159°
2026-05-07 22:47 47.62313 8.79796 12072 ft 379 kts 159°
2026-05-07 22:47 47.59901 8.81323 11331 ft 375 kts 160°
2026-05-07 22:48 47.57401 8.82311 11067 ft 372 kts 179°
2026-05-07 22:48 47.54930 8.81709 10828 ft 353 kts 205°
2026-05-07 22:48 47.53019 8.79653 10590 ft 334 kts 232°
2026-05-07 22:48 47.52039 8.76654 10349 ft 320 kts 259°
2026-05-07 22:49 47.51878 8.73433 10103 ft 309 kts 268°
2026-05-07 22:49 47.51760 8.70319 9936 ft 297 kts 262°
2026-05-07 22:49 47.51494 8.68364 9847 ft 288 kts 254°
2026-05-07 22:49 47.50505 8.64807 9663 ft 274 kts 242°
2026-05-07 22:50 47.49858 8.63206 9578 ft 273 kts 237°
2026-05-07 22:50 47.48765 8.60918 9442 ft 272 kts 237°
2026-05-07 22:50 47.48085 8.58353 9302 ft 271 kts 263°
2026-05-07 22:50 47.48248 8.55576 9173 ft 274 kts 286°
2026-05-07 22:51 47.49175 8.53064 9045 ft 278 kts 309°
2026-05-07 22:51 47.50661 8.51297 8778 ft 284 kts 330°
2026-05-07 22:51 47.52466 8.50069 8259 ft 286 kts 334°
2026-05-07 22:51 47.54312 8.48865 7835 ft 285 kts 334°
2026-05-07 22:52 47.56140 8.47678 7309 ft 287 kts 335°
2026-05-07 22:52 47.57947 8.46500 6967 ft 283 kts 335°
2026-05-07 22:52 47.59751 8.45314 6537 ft 282 kts 335°
2026-05-07 22:52 47.61541 8.44132 6098 ft 281 kts 335°
2026-05-07 22:53 47.63326 8.42950 5409 ft 279 kts 336°
2026-05-07 22:53 47.64977 8.41778 5096 ft 250 kts 328°
2026-05-07 22:53 47.66090 8.40006 5033 ft 230 kts 292°
2026-05-07 22:53 47.66330 8.37741 4955 ft 224 kts 258°
2026-05-07 22:54 47.65736 8.35689 4900 ft 212 kts 227°
2026-05-07 22:54 47.64606 8.34448 4847 ft 198 kts 198°
2026-05-07 22:54 47.63276 8.34164 4796 ft 192 kts 171°
2026-05-07 22:54 47.62023 8.34818 4759 ft 189 kts 144°
2026-05-07 22:55 47.61014 8.36065 4712 ft 190 kts 137°
2026-05-07 22:55 47.60034 8.37396 4593 ft 192 kts 136°
2026-05-07 22:55 47.59053 8.38742 4359 ft 191 kts 136°
2026-05-07 22:55 47.58075 8.40087 4111 ft 192 kts 135°
2026-05-07 22:56 47.57094 8.41433 3856 ft 191 kts 134°
2026-05-07 22:56 47.56129 8.42757 3638 ft 187 kts 134°
2026-05-07 22:56 47.55188 8.44047 3365 ft 183 kts 134°
2026-05-07 22:56 47.54263 8.45315 3093 ft 176 kts 133°
2026-05-07 22:57 47.53390 8.46511 2851 ft 165 kts 133°
2026-05-07 22:57 47.52580 8.47618 2665 ft 150 kts 133°
2026-05-07 22:57 47.51844 8.48637 2407 ft 142 kts 133°
2026-05-07 22:57 47.51125 8.49631 2188 ft 141 kts 135°
2026-05-07 22:58 47.50398 8.50616 2000 ft 142 kts 137°
2026-05-07 22:58 47.49665 8.51612 1813 ft 143 kts 136°
2026-05-07 22:58 47.48934 8.52612 1635 ft 143 kts 136°
2026-05-07 22:58 47.48205 8.53614 1450 ft 143 kts 136°
2026-05-07 22:59 47.47531 8.54545 1401 ft 112 kts 137°
2026-05-07 22:59 47.47071 8.55165 1388 ft 76 kts 137°
2026-05-07 22:59 47.46733 8.55628 1400 ft 60 kts 139°
2026-05-07 22:59 47.46465 8.55935 1397 ft 41 kts 158°
2026-05-07 23:00 47.46251 8.55993 1411 ft 27 kts 164°
2026-05-07 23:00 47.46101 8.56145 1408 ft 26 kts 136°
2026-05-07 23:00 47.45968 8.56327 1416 ft 21 kts 148°
2026-05-07 23:00 47.45882 8.56296 1416 ft 16 kts 189°
2026-05-07 23:01 47.45747 8.56280 1415 ft 21 kts 183°
2026-05-07 23:01 47.45618 8.56255 1413 ft 10 kts 224°
2026-05-07 23:01 47.45617 8.56159 1411 ft 10 kts 276°
2026-05-07 23:01 47.45625 8.56037 1410 ft 13 kts 275°
2026-05-07 23:02 47.45634 8.55881 1413 ft 17 kts 274°
2026-05-07 23:02 47.45651 8.55687 1408 ft 21 kts 278°
2026-05-07 23:02 47.45669 8.55459 1401 ft 22 kts 273°
2026-05-07 23:02 47.45663 8.55253 1398 ft 17 kts 252°
2026-05-07 23:03 47.45626 8.55214 1399 ft 5 kts 148°
2026-05-07 23:03 47.45604 8.55239 1399 ft 3 kts 143°
2026-05-07 23:03 47.45568 8.55265 1398 ft 12 kts 155°
2026-05-07 23:03 47.45476 8.55318 1401 ft 14 kts 156°
2026-05-07 23:04 47.45388 8.55378 1403 ft 17 kts 156°
2026-05-07 23:04 47.45274 8.55455 1401 ft 18 kts 154°
2026-05-07 23:04 47.45165 8.55531 1403 ft 17 kts 154°
2026-05-07 23:04 47.45063 8.55605 1401 ft 16 kts 154°
2026-05-07 23:05 47.44964 8.55670 1399 ft 16 kts 156°
2026-05-07 23:05 47.44857 8.55739 1402 ft 17 kts 156°
2026-05-07 23:05 47.44754 8.55806 1396 ft 16 kts 156°
2026-05-07 23:05 47.44657 8.55876 1398 ft 14 kts 153°
2026-05-07 23:06 47.44578 8.55934 1400 ft 11 kts 154°
2026-05-07 23:06 47.44507 8.55985 1403 ft 11 kts 155°
2026-05-07 23:06 47.44445 8.56026 1403 ft 9 kts 155°
2026-05-07 23:06 47.44363 8.56085 1401 ft 16 kts 148°
2026-05-07 23:07 47.44293 8.56229 1406 ft 18 kts 91°
2026-05-07 23:07 47.44373 8.56338 1409 ft 19 kts 353°
2026-05-07 23:07 47.44504 8.56267 1398 ft 22 kts 328°
2026-05-07 23:07 47.44578 8.56185 1396 ft 5 kts 317°
2026-05-07 23:08 47.44571 8.56130 1395 ft 6 kts 244°
2026-05-07 23:08 47.44555 8.56081 1401 ft 5 kts 245°
2026-05-07 23:08 47.44552 8.56070 1395 ft 0 kts 245°